This is the latest recevied weather packets stored in our database for station/object KO6LQJ. If no packets are shown the sender has not sent any weather packets the latest 1 day(s).
| Time | Temp. | Humidity | Pressure | Rain* | Wind** | Luminosity | Snow |
|---|---|---|---|---|---|---|---|
| 1778041761 | 14.44° C | 63% | 1018.1 hPa | 0 mm | - | 0 W/m² | - |
| 1778041158 | 14.44° C | 64% | 1017.6 hPa | 0 mm | - | 0 W/m² | - |
| 1778040855 | 14.44° C | 62% | 1017.5 hPa | 0 mm | - | 0 W/m² | - |
| 1778040250 | 15° C | 62% | 1017.7 hPa | 0 mm | - | 0 W/m² | - |
| 1778039340 | 15° C | 63% | 1017.4 hPa | 0 mm | - | 0 W/m² | - |
| 1778039037 | 15° C | 63% | 1017.5 hPa | 0 mm | - | 0 W/m² | - |
| 1778038734 | 15° C | 64% | 1017.4 hPa | 0 mm | - | 0 W/m² | - |
| 1778038128 | 15° C | 63% | 1017.4 hPa | 0 mm | - | 0 W/m² | - |
| 1778037825 | 15° C | 63% | 1017.4 hPa | 0 mm | - | 0 W/m² | - |
| 1778037522 | 15.56° C | 62% | 1017 hPa | 0 mm | - | 0 W/m² | - |
| 1778037219 | 15.56° C | 61% | 1017.2 hPa | 0 mm | - | 0 W/m² | - |
| 1778036917 | 15.56° C | 60% | 1017 hPa | 0 mm | - | 0 W/m² | - |
| 1778036615 | 16.11° C | 59% | 1017 hPa | 0 mm | - | 0 W/m² | - |
| 1778036311 | 16.11° C | 57% | 1016.8 hPa | 0 mm | - | 0 W/m² | - |
| 1778036007 | 16.67° C | 56% | 1016.7 hPa | 0 mm | - | 0 W/m² | - |
| 1778035705 | 16.67° C | 55% | 1016.5 hPa | 0 mm | - | 0 W/m² | - |
| 1778035097 | 16.67° C | 55% | 1016.7 hPa | 0 mm | - | 1 W/m² | - |
| 1778034795 | 16.67° C | 55% | 1016.6 hPa | 0 mm | - | 1 W/m² | - |
| 1778034491 | 16.67° C | 55% | 1016.4 hPa | 0 mm | - | 2 W/m² | - |
| 1778034189 | 16.67° C | 55% | 1016.4 hPa | 0 mm | - | 3 W/m² | - |
| 1778033887 | 16.67° C | 54% | 1016.3 hPa | 0 mm | - | 5 W/m² | - |
| 1778033584 | 16.67° C | 55% | 1016.3 hPa | 0 mm | - | 8 W/m² | - |
| 1778033280 | 17.22° C | 54% | 1016.2 hPa | 0 mm | - | 12 W/m² | - |
| 1778032676 | 17.78° C | 53% | 1016 hPa | 0 mm | - | 31 W/m² | - |
| 1778032373 | 17.22° C | 54% | 1016.1 hPa | 0 mm | - | 26 W/m² | - |
* Rain latest hour (hover to see other rain measurements)
** Current wind speed in m/s (hover to see current wind gust speed)